Time,TemperatureF,DewpointF,PressureIn,WindDirection,WindDirectionDegrees,WindSpeedMPH,WindSpeedGustMPH,Humidity,HourlyPrecipIn,Conditions,Clouds,dailyrainin,SoftwareType,DateUTC
2013-03-31 00:00:00,57.0,53.5,30.17,West,279,0.0,0.0,88,0.00,,BKN095,0.00,VWS V14.01,2013-03-31 07:00:00,
2013-03-31 00:10:00,57.0,53.5,30.17,WSW,248,0.0,0.0,88,0.00,,BKN095,0.00,VWS V14.01,2013-03-31 07:10:00,
2013-03-31 00:20:00,57.2,53.4,30.17,WSW,238,0.0,0.0,87,0.00,,BKN095,0.00,VWS V14.01,2013-03-31 07:20:00,
2013-03-31 00:30:00,57.2,53.4,30.17,West,268,0.0,0.0,87,0.00,,BKN095,0.00,VWS V14.01,2013-03-31 07:30:00,
2013-03-31 00:40:00,57.2,53.4,30.17,West,269,0.0,0.0,87,0.00,,OVC090,0.00,VWS V14.01,2013-03-31 07:40:00,
2013-03-31 00:50:00,57.2,53.4,30.17,West,268,0.0,0.0,87,0.00,,OVC090,0.00,VWS V14.01,2013-03-31 07:50:00,
2013-03-31 01:00:00,57.2,53.4,30.17,West,268,0.0,0.0,87,0.00,,OVC090,0.00,VWS V14.01,2013-03-31 08:00:00,
2013-03-31 01:10:00,57.2,53.4,30.17,ENE,63,0.0,0.0,87,0.00,,OVC090,0.00,VWS V14.01,2013-03-31 08:10:00,
2013-03-31 01:20:00,57.2,53.4,30.17,ENE,63,0.0,0.0,87,0.00,,OVC090,0.00,VWS V14.01,2013-03-31 08:20:00,
2013-03-31 01:30:00,57.2,53.4,30.17,ENE,62,0.0,0.0,87,0.00,,OVC090,0.00,VWS V14.01,2013-03-31 08:30:00,
2013-03-31 01:40:00,57.2,53.4,30.14,North,0,0.0,0.0,87,0.00,,OVC085,0.00,VWS V14.01,2013-03-31 08:40:00,
2013-03-31 01:50:00,57.0,53.2,30.14,NE,46,4.8,4.8,87,0.00,,OVC085,0.00,VWS V14.01,2013-03-31 08:50:00,
2013-03-31 02:00:00,57.0,53.5,30.17,NNE,33,3.2,6.4,88,0.00,,OVC075,0.00,VWS V14.01,2013-03-31 09:00:00,
2013-03-31 02:10:00,57.0,53.5,30.14,NE,42,0.0,4.8,88,0.00,,OVC075,0.00,VWS V14.01,2013-03-31 09:10:00,
2013-03-31 02:20:00,56.8,53.3,30.14,NNE,19,2.7,4.8,88,0.00,,OVC075,0.00,VWS V14.01,2013-03-31 09:20:00,
2013-03-31 09:50:00,61.9,54.2,30.17,NE,50,4.3,7.5,76,0.00,,OVC075,0.00,VWS V14.01,2013-03-31 16:50:00,
2013-03-31 10:00:00,62.2,53.9,30.17,NE,48,3.2,7.5,74,0.00,,OVC048,0.00,VWS V14.01,2013-03-31 17:00:00,
2013-03-31 10:10:00,62.8,54.8,30.17,ENE,70,0.0,7.0,75,0.00,,OVC048,0.00,VWS V14.01,2013-03-31 17:10:00,
2013-03-31 10:20:00,63.1,54.3,30.17,South,169,0.0,4.3,73,0.00,,OVC048,0.00,VWS V14.01,2013-03-31 17:20:00,
2013-03-31 10:30:00,63.7,54.5,30.17,SSE,154,0.0,6.4,72,0.00,,OVC048,0.00,VWS V14.01,2013-03-31 17:30:00,
2013-03-31 10:40:00,63.9,54.3,30.17,South,176,6.4,6.4,71,0.00,,OVC048,0.00,VWS V14.01,2013-03-31 17:40:00,
2013-03-31 10:50:00,63.9,54.3,30.17,SE,131,0.0,6.4,71,0.00,,OVC065,0.00,VWS V14.01,2013-03-31 17:50:00,
2013-03-31 11:00:00,63.9,55.4,30.17,SSE,157,7.0,7.5,74,0.00,,OVC065,0.00,VWS V14.01,2013-03-31 18:00:00,
2013-03-31 11:10:00,63.3,55.6,30.17,SSE,153,3.2,7.5,76,0.00,,OVC065,0.00,VWS V14.01,2013-03-31 18:10:00,
2013-03-31 11:20:00,63.1,56.2,30.17,WSW,237,0.0,7.5,78,0.00,,OVC065,0.00,VWS V14.01,2013-03-31 18:20:00,
2013-03-31 11:30:00,62.6,56.3,30.17,South,179,3.8,8.6,80,0.00,,OVC065,0.00,VWS V14.01,2013-03-31 18:30:00,
2013-03-31 11:40:00,62.4,57.2,30.17,SSW,198,3.8,7.5,83,0.00,,OVC065,0.00,VWS V14.01,2013-03-31 18:40:00,
2013-03-31 11:50:00,61.7,57.2,30.17,SSE,148,6.4,7.5,85,0.00,,-RA,0.00,VWS V14.01,2013-03-31 18:50:00,
2013-03-31 12:00:00,61.2,57.3,30.17,SSE,157,5.9,11.0,87,0.00,,-RA,0.00,VWS V14.01,2013-03-31 19:00:00,
2013-03-31 12:10:00,61.0,57.7,30.17,SE,142,6.4,9.9,89,0.00,,-RA,0.00,VWS V14.01,2013-03-31 19:10:00,
2013-03-31 12:20:00,60.8,57.8,30.17,SSW,201,6.4,9.9,90,0.00,,-RA,0.00,VWS V14.01,2013-03-31 19:20:00,
2013-03-31 12:30:00,60.8,58.2,30.17,SE,126,4.3,9.7,91,0.00,,-RA,0.00,VWS V14.01,2013-03-31 19:30:00,
2013-03-31 12:40:00,60.8,58.5,30.17,SSE,149,4.3,8.6,92,0.00,,-RA,0.00,VWS V14.01,2013-03-31 19:40:00,
2013-03-31 12:50:00,60.6,58.6,30.17,SE,144,3.2,10.5,93,0.00,,-RA,0.00,VWS V14.01,2013-03-31 19:50:00,
2013-03-31 13:00:00,60.8,58.8,30.17,South,189,9.1,13.7,93,0.04,,-RA,0.04,VWS V14.01,2013-03-31 20:00:00,
2013-03-31 13:10:00,60.6,58.9,30.17,South,187,9.9,12.6,94,0.04,,-RA,0.04,VWS V14.01,2013-03-31 20:10:00,
2013-03-31 13:20:00,60.4,58.7,30.17,SSE,163,9.1,12.1,94,0.04,,-RA,0.04,VWS V14.01,2013-03-31 20:20:00,
2013-03-31 13:30:00,60.6,58.9,30.17,ESE,102,2.7,9.9,94,0.04,,-RA,0.04,VWS V14.01,2013-03-31 20:30:00,
2013-03-31 13:40:00,60.8,59.1,30.17,South,183,4.3,6.4,94,0.04,,-RA,0.04,VWS V14.01,2013-03-31 20:40:00,
2013-03-31 13:50:00,60.8,59.4,30.17,SSE,154,0.0,8.6,95,0.04,,-RA,0.04,VWS V14.01,2013-03-31 20:50:00,
2013-03-31 14:00:00,61.0,59.5,30.14,ESE,108,3.2,7.0,95,0.04,,-RA,0.04,VWS V14.01,2013-03-31 21:00:00,
2013-03-31 14:10:00,61.2,59.7,30.14,SSE,155,3.2,6.4,95,0.00,,-RA,0.04,VWS V14.01,2013-03-31 21:10:00,
2013-03-31 14:20:00,61.5,60.4,30.14,SSE,154,7.0,7.5,96,0.00,,-RA,0.04,VWS V14.01,2013-03-31 21:20:00,
2013-03-31 14:30:00,61.3,59.9,30.14,SSE,160,7.0,7.5,95,0.00,,-RA,0.04,VWS V14.01,2013-03-31 21:30:00,
2013-03-31 14:40:00,61.9,60.4,30.14,South,179,0.0,7.0,95,0.04,,OVC010,0.08,VWS V14.01,2013-03-31 21:40:00,
2013-03-31 14:50:00,61.9,60.7,30.14,SSE,160,3.2,5.9,96,0.04,,OVC010,0.08,VWS V14.01,2013-03-31 21:50:00,
2013-03-31 15:00:00,62.1,60.9,30.14,SSE,164,3.2,5.4,96,0.04,,OVC010,0.08,VWS V14.01,2013-03-31 22:00:00,
2013-03-31 15:10:00,62.1,60.6,30.11,South,171,5.9,9.9,95,0.04,,OVC010,0.08,VWS V14.01,2013-03-31 22:10:00,
2013-03-31 15:20:00,62.2,60.2,30.11,SW,230,4.3,12.1,93,0.04,,OVC010,0.08,VWS V14.01,2013-03-31 22:20:00,
2013-03-31 15:30:00,62.4,60.4,30.11,SE,135,4.3,12.1,93,0.04,,OVC010,0.08,VWS V14.01,2013-03-31 22:30:00,
2013-03-31 15:40:00,62.1,59.7,30.11,SSE,165,4.8,10.5,92,0.04,,OVC010,0.08,VWS V14.01,2013-03-31 22:40:00,
2013-03-31 15:50:00,62.2,59.9,30.11,SSW,213,4.8,9.1,92,0.00,,OVC038,0.08,VWS V14.01,2013-03-31 22:50:00,
2013-03-31 16:00:00,62.6,59.9,30.11,South,189,4.3,9.9,91,0.00,,BKN050,0.08,VWS V14.01,2013-03-31 23:00:00,
2013-03-31 16:10:00,63.0,59.7,30.11,SSW,206,3.2,11.0,89,0.00,,BKN050,0.08,VWS V14.01,2013-03-31 23:10:00,
2013-03-31 16:20:00,63.7,58.4,30.11,WSW,255,9.7,12.1,83,0.00,,BKN050,0.08,VWS V14.01,2013-03-31 23:20:00,
2013-03-31 16:30:00,63.9,56.5,30.11,West,281,9.1,12.1,77,0.00,,BKN050,0.08,VWS V14.01,2013-03-31 23:30:00,
2013-03-31 16:40:00,64.0,55.2,30.11,SSW,211,4.8,12.1,73,0.00,,BKN050,0.08,VWS V14.01,2013-03-31 23:40:00,
2013-03-31 16:50:00,64.4,55.2,30.11,SSW,206,4.8,13.2,72,0.00,,OVC050,0.08,VWS V14.01,2013-03-31 23:50:00,
2013-03-31 17:00:00,64.6,55.4,30.11,SSW,206,5.4,13.2,72,0.00,,OVC050,0.08,VWS V14.01,2013-04-01 00:00:00,
2013-03-31 17:10:00,64.4,54.8,30.11,SSW,212,7.5,15.3,71,0.00,,OVC050,0.08,VWS V14.01,2013-04-01 00:10:00,
2013-03-31 17:20:00,63.7,54.1,30.11,SSE,156,6.4,10.5,71,0.00,,OVC050,0.08,VWS V14.01,2013-04-01 00:20:00,
2013-03-31 17:30:00,62.4,53.7,30.11,South,185,3.8,12.1,73,0.00,,OVC050,0.08,VWS V14.01,2013-04-01 00:30:00,
2013-03-31 17:40:00,61.7,54.1,30.11,SW,215,3.8,10.5,76,0.00,,OVC050,0.08,VWS V14.01,2013-04-01 00:40:00,
2013-03-31 17:50:00,60.8,53.9,30.11,WSW,237,5.4,9.7,78,0.00,,OVC023,0.08,VWS V14.01,2013-04-01 00:50:00,
2013-03-31 18:00:00,60.4,54.2,30.11,SW,214,5.9,8.6,80,0.00,,OVC023,0.08,VWS V14.01,2013-04-01 01:00:00,
2013-03-31 18:10:00,60.1,54.2,30.11,South,174,6.4,8.1,81,0.00,,OVC023,0.08,VWS V14.01,2013-04-01 01:10:00,
2013-03-31 18:20:00,59.7,54.2,30.11,SW,234,4.8,7.5,82,0.00,,OVC023,0.08,VWS V14.01,2013-04-01 01:20:00,
2013-03-31 18:30:00,59.4,54.2,30.11,South,177,6.4,9.1,83,0.00,,OVC023,0.08,VWS V14.01,2013-04-01 01:30:00,
2013-03-31 18:40:00,59.2,54.4,30.11,SSW,205,7.0,7.5,84,0.00,,OVC009,0.08,VWS V14.01,2013-04-01 01:40:00,
2013-03-31 18:50:00,59.0,54.5,30.11,SW,232,5.9,8.6,85,0.00,,OVC009,0.08,VWS V14.01,2013-04-01 01:50:00,
2013-03-31 19:00:00,58.6,54.5,30.14,WSW,257,3.2,9.1,86,0.00,,OVC009,0.08,VWS V14.01,2013-04-01 02:00:00,
2013-03-31 19:10:00,58.5,54.6,30.14,West,265,3.8,7.5,87,0.00,,OVC009,0.08,VWS V14.01,2013-04-01 02:10:00,
2013-03-31 19:20:00,57.9,54.4,30.14,SW,232,4.3,9.1,88,0.00,,OVC009,0.08,VWS V14.01,2013-04-01 02:20:00,
2013-03-31 19:30:00,57.6,54.0,30.14,SSW,193,3.8,9.1,88,0.00,,OVC009,0.08,VWS V14.01,2013-04-01 02:30:00,
2013-03-31 19:40:00,57.4,53.9,30.14,SW,221,4.8,9.7,88,0.00,,OVC011,0.08,VWS V14.01,2013-04-01 02:40:00,
2013-03-31 19:50:00,57.2,53.4,30.14,SSW,208,4.8,9.1,87,0.00,,OVC011,0.08,VWS V14.01,2013-04-01 02:50:00,
2013-03-31 20:00:00,57.0,53.5,30.14,South,188,4.8,10.5,88,0.00,,OVC011,0.08,VWS V14.01,2013-04-01 03:00:00,
2013-03-31 20:10:00,56.8,53.3,30.14,WSW,251,7.5,9.9,88,0.00,,OVC011,0.08,VWS V14.01,2013-04-01 03:10:00,
2013-03-31 20:20:00,56.7,53.5,30.14,South,189,3.8,10.5,89,0.00,,OVC011,0.08,VWS V14.01,2013-04-01 03:20:00,
2013-03-31 20:30:00,56.7,53.5,30.14,SW,228,3.8,7.0,89,0.00,,OVC011,0.08,VWS V14.01,2013-04-01 03:30:00,
2013-03-31 20:40:00,56.5,53.6,30.14,WSW,237,4.3,8.6,90,0.00,,OVC011,0.08,VWS V14.01,2013-04-01 03:40:00,
2013-03-31 20:50:00,56.1,53.2,30.14,SW,225,3.2,8.1,90,0.00,,OVC015,0.08,VWS V14.01,2013-04-01 03:50:00,
2013-03-31 21:00:00,55.9,53.4,30.14,SW,236,3.8,9.1,91,0.00,,OVC015,0.08,VWS V14.01,2013-04-01 04:00:00,
2013-03-31 21:10:00,55.9,53.7,30.14,West,271,3.2,7.0,92,0.00,,OVC015,0.08,VWS V14.01,2013-04-01 04:10:00,
2013-03-31 21:20:00,55.8,53.5,30.14,SSW,200,4.3,10.5,92,0.00,,OVC015,0.08,VWS V14.01,2013-04-01 04:20:00,
2013-03-31 21:30:00,55.4,53.4,30.17,SW,216,7.5,7.5,93,0.00,,OVC015,0.08,VWS V14.01,2013-04-01 04:30:00,
2013-03-31 21:40:00,55.2,53.5,30.17,South,175,7.5,9.7,94,0.00,,OVC015,0.08,VWS V14.01,2013-04-01 04:40:00,
2013-03-31 21:50:00,54.9,53.2,30.17,WSW,240,0.0,9.7,94,0.00,,OVC004,0.08,VWS V14.01,2013-04-01 04:50:00,
2013-03-31 22:00:00,54.7,53.0,30.17,SW,229,0.0,7.0,94,0.00,,OVC004,0.08,VWS V14.01,2013-04-01 05:00:00,
2013-03-31 22:10:00,54.7,53.3,30.17,SW,225,4.3,8.6,95,0.00,,OVC004,0.08,VWS V14.01,2013-04-01 05:10:00,
2013-03-31 22:20:00,54.5,53.1,30.17,WSW,254,4.3,9.7,95,0.00,,OVC004,0.08,VWS V14.01,2013-04-01 05:20:00,
2013-03-31 22:30:00,54.5,53.1,30.17,SW,233,3.8,7.5,95,0.00,,OVC004,0.08,VWS V14.01,2013-04-01 05:30:00,
2013-03-31 22:40:00,54.3,52.9,30.17,SW,217,4.3,8.6,95,0.00,,OVC004,0.08,VWS V14.01,2013-04-01 05:40:00,
2013-03-31 22:50:00,54.3,52.9,30.17,WSW,246,0.0,7.5,95,0.00,,,0.08,VWS V14.01,2013-04-01 05:50:00,
2013-03-31 23:00:00,54.3,53.2,30.17,WNW,290,2.7,4.8,96,0.00,,,0.08,VWS V14.01,2013-04-01 06:00:00,
2013-03-31 23:10:00,54.5,53.4,30.17,SSW,211,4.8,4.8,96,0.00,,,0.08,VWS V14.01,2013-04-01 06:10:00,
2013-03-31 23:20:00,54.5,53.4,30.17,West,264,3.2,5.9,96,0.00,,,0.08,VWS V14.01,2013-04-01 06:20:00,
2013-03-31 23:30:00,54.5,53.4,30.17,West,278,0.0,4.8,96,0.00,,,0.08,VWS V14.01,2013-04-01 06:30:00,
2013-03-31 23:40:00,54.5,53.4,30.17,WSW,242,0.0,2.7,96,0.00,,,0.08,VWS V14.01,2013-04-01 06:40:00,
2013-03-31 23:50:00,54.7,53.6,30.17,West,265,0.0,3.2,96,0.00,,,0.08,VWS V14.01,2013-04-01 06:50:00,